FDX724 CYWG-CYYC

Flight info

Callsign FDX724
Flight time 1h 38m
Altitude 38000
Route LIVBI DCT DUKPO DCT FAREN DCT GUDOG DCT PIKLA DCT BIRKO BIRKO6
Aircraft B77L/H-SDE1E2E3FGHIJ2J3J4J5M1RWXY/LB1D1

Departure

Time 2026-05-05 23:53
Airport Winnipeg / James Armstrong Richardson International Airport (CYWG)

Arrival

Time 2026-05-06 01:31
Airport Calgary International Airport (CYYC)
Time Latitude Longitude Altitude Speed Heading
2026-05-05 23:43 49.89701 -97.22239 786 ft 0 kts
2026-05-05 23:48 49.89694 -97.22240 786 ft 3 kts
2026-05-05 23:48 49.89674 -97.22244 787 ft 3 kts 359°
2026-05-05 23:48 49.89661 -97.22242 787 ft 2 kts 330°
2026-05-05 23:48 49.89651 -97.22231 787 ft 2 kts 303°
2026-05-05 23:49 49.89646 -97.22217 787 ft 2 kts 281°
2026-05-05 23:49 49.89649 -97.22233 787 ft 2 kts 286°
2026-05-05 23:49 49.89650 -97.22242 787 ft 0 kts 283°
2026-05-05 23:50 49.89650 -97.22243 787 ft 1 kts 283°
2026-05-05 23:51 49.89657 -97.22334 788 ft 12 kts 274°
2026-05-05 23:51 49.89668 -97.22460 787 ft 12 kts 282°
2026-05-05 23:51 49.89651 -97.22579 785 ft 13 kts 228°
2026-05-05 23:51 49.89589 -97.22688 784 ft 14 kts 229°
2026-05-05 23:52 49.89544 -97.22795 783 ft 9 kts 261°
2026-05-05 23:52 49.89560 -97.22844 782 ft 0 kts 319°
2026-05-05 23:52 49.89571 -97.22859 782 ft 13 kts 319°
2026-05-05 23:52 49.89846 -97.23239 783 ft 92 kts 318°
2026-05-05 23:53 49.90492 -97.24120 791 ft 153 kts 319°
2026-05-05 23:53 49.91381 -97.25330 1037 ft 182 kts 319°
2026-05-05 23:53 49.92399 -97.26709 1593 ft 199 kts 319°
2026-05-05 23:53 49.93423 -97.28101 2628 ft 190 kts 319°
2026-05-05 23:54 49.94417 -97.29475 3461 ft 193 kts 320°
2026-05-05 23:54 49.95430 -97.30890 4227 ft 199 kts 321°
2026-05-05 23:54 49.96358 -97.32614 4607 ft 226 kts 295°
2026-05-05 23:54 49.96536 -97.35183 5042 ft 254 kts 266°
2026-05-05 23:55 49.96227 -97.37936 5770 ft 263 kts 264°
2026-05-05 23:55 49.95907 -97.40755 6740 ft 266 kts 264°
2026-05-05 23:55 49.95584 -97.43592 7725 ft 267 kts 264°
2026-05-05 23:55 49.95259 -97.46447 8663 ft 270 kts 264°
2026-05-05 23:56 49.94931 -97.49341 9607 ft 274 kts 264°
2026-05-05 23:56 49.94599 -97.52276 10437 ft 280 kts 264°
2026-05-05 23:56 49.94257 -97.55333 10781 ft 305 kts 263°
2026-05-05 23:56 49.93871 -97.58779 11034 ft 334 kts 263°
2026-05-05 23:57 49.93466 -97.62364 11711 ft 347 kts 263°
2026-05-05 23:57 49.93041 -97.66099 12658 ft 356 kts 263°
2026-05-05 23:57 49.92607 -97.69909 13718 ft 361 kts 263°
2026-05-05 23:57 49.92247 -97.73797 14657 ft 365 kts 269°
2026-05-05 23:58 49.92236 -97.77747 15580 ft 368 kts 276°
2026-05-05 23:58 49.92540 -97.81693 16507 ft 371 kts 283°
2026-05-05 23:58 49.93035 -97.85645 17406 ft 376 kts 284°
2026-05-05 23:58 49.93556 -97.89671 18235 ft 384 kts 285°
2026-05-05 23:59 49.94087 -97.93765 19045 ft 389 kts 284°
2026-05-05 23:59 49.94619 -97.97910 19888 ft 392 kts 284°
2026-05-05 23:59 49.95147 -98.02080 20699 ft 397 kts 284°
2026-05-05 23:59 49.95678 -98.06312 21502 ft 402 kts 284°
2026-05-06 00:00 49.96211 -98.10598 22259 ft 407 kts 284°
2026-05-06 00:00 49.96752 -98.14957 22988 ft 413 kts 284°
2026-05-06 00:00 49.97286 -98.19299 23768 ft 416 kts 284°
2026-05-06 00:00 49.97829 -98.23742 24399 ft 421 kts 284°
2026-05-06 00:01 49.98376 -98.28232 25006 ft 426 kts 284°
2026-05-06 00:01 49.98929 -98.32783 25621 ft 430 kts 284°
2026-05-06 00:01 49.99486 -98.37385 26259 ft 434 kts 284°
2026-05-06 00:01 50.00046 -98.42021 26884 ft 438 kts 284°
2026-05-06 00:02 50.00609 -98.46704 27485 ft 443 kts 283°
2026-05-06 00:02 50.01177 -98.51442 28082 ft 447 kts 283°
2026-05-06 00:02 50.01748 -98.56219 28662 ft 452 kts 283°
2026-05-06 00:02 50.02321 -98.61041 29241 ft 456 kts 283°
2026-05-06 00:03 50.02899 -98.65913 29795 ft 460 kts 283°
2026-05-06 00:03 50.03480 -98.70837 30299 ft 465 kts 283°
2026-05-06 00:03 50.04064 -98.75795 30706 ft 469 kts 283°
2026-05-06 00:03 50.04643 -98.80740 31094 ft 472 kts 282°
2026-05-06 00:04 50.05239 -98.85846 31513 ft 475 kts 282°
2026-05-06 00:04 50.05826 -98.90905 32040 ft 474 kts 282°
2026-05-06 00:04 50.06404 -98.95885 32573 ft 474 kts 282°
2026-05-06 00:04 50.06987 -99.00935 33109 ft 473 kts 282°
2026-05-06 00:05 50.08148 -99.11066 33974 ft 477 kts 282°
2026-05-06 00:05 50.08726 -99.16149 34412 ft 476 kts 282°
2026-05-06 00:05 50.09300 -99.21223 34806 ft 476 kts 282°
2026-05-06 00:06 50.09873 -99.26298 35207 ft 476 kts 282°
2026-05-06 00:06 50.10445 -99.31382 35581 ft 476 kts 282°
2026-05-06 00:06 50.11013 -99.36459 35971 ft 476 kts 282°
2026-05-06 00:06 50.11580 -99.41538 36354 ft 476 kts 282°
2026-05-06 00:07 50.12143 -99.46612 36719 ft 475 kts 281°
2026-05-06 00:07 50.12706 -99.51694 37082 ft 475 kts 281°
2026-05-06 00:07 50.13265 -99.56775 37442 ft 475 kts 281°
2026-05-06 00:07 50.13816 -99.61796 37790 ft 475 kts 281°
2026-05-06 00:08 50.14371 -99.66875 38024 ft 477 kts 281°
2026-05-06 00:08 50.15490 -99.77170 38096 ft 481 kts 281°
2026-05-06 00:09 50.16612 -99.87387 38084 ft 474 kts 283°
2026-05-06 00:09 50.18292 -99.97300 38098 ft 471 kts 288°
2026-05-06 00:10 50.20103 -100.07119 38102 ft 471 kts 288°
2026-05-06 00:10 50.21899 -100.16970 38082 ft 472 kts 288°
2026-05-06 00:11 50.23670 -100.26861 38101 ft 473 kts 287°
2026-05-06 00:11 50.25417 -100.36723 38098 ft 474 kts 287°
2026-05-06 00:12 50.27170 -100.46686 38094 ft 476 kts 287°
2026-05-06 00:12 50.28920 -100.56682 38094 ft 477 kts 287°
2026-05-06 00:13 50.30663 -100.66688 38082 ft 477 kts 287°
2026-05-06 00:13 50.32399 -100.76710 38098 ft 477 kts 287°
2026-05-06 00:14 50.34128 -100.86753 38093 ft 477 kts 287°
2026-05-06 00:14 50.35846 -100.96784 38099 ft 477 kts 287°
2026-05-06 00:15 50.37544 -101.06763 38097 ft 477 kts 287°
2026-05-06 00:15 50.39242 -101.16796 38084 ft 476 kts 287°
2026-05-06 00:16 50.40932 -101.26838 38096 ft 476 kts 287°
2026-05-06 00:16 50.42612 -101.36875 38108 ft 476 kts 287°
2026-05-06 00:17 50.44282 -101.46920 38107 ft 476 kts 287°
2026-05-06 00:17 50.45946 -101.56980 38109 ft 476 kts 287°
2026-05-06 00:18 50.47601 -101.67053 38089 ft 476 kts 287°
2026-05-06 00:18 50.49246 -101.77122 38110 ft 476 kts 287°
2026-05-06 00:19 50.50871 -101.87123 38117 ft 476 kts 287°
2026-05-06 00:19 50.52500 -101.97216 38118 ft 476 kts 287°
2026-05-06 00:20 50.54122 -102.07321 38121 ft 477 kts 287°
2026-05-06 00:20 50.55736 -102.17443 38104 ft 477 kts 287°
2026-05-06 00:21 50.57338 -102.27552 38126 ft 476 kts 287°
2026-05-06 00:21 50.58934 -102.37682 38123 ft 476 kts 286°
2026-05-06 00:22 50.60518 -102.47802 38127 ft 476 kts 286°
2026-05-06 00:22 50.62095 -102.57934 38128 ft 476 kts 286°
2026-05-06 00:23 50.63650 -102.67991 38117 ft 476 kts 286°
2026-05-06 00:23 50.65209 -102.78135 38130 ft 476 kts 286°
2026-05-06 00:24 50.66757 -102.88274 38134 ft 476 kts 286°
2026-05-06 00:24 50.68293 -102.98397 38136 ft 476 kts 286°
2026-05-06 00:25 50.69825 -103.08559 38140 ft 476 kts 286°
2026-05-06 00:25 50.71346 -103.18713 38142 ft 476 kts 286°
2026-05-06 00:26 50.72605 -103.27170 38138 ft 476 kts 286°
2026-05-06 00:26 50.74111 -103.37342 38140 ft 475 kts 286°
2026-05-06 00:27 50.75607 -103.47510 38143 ft 475 kts 286°
2026-05-06 00:27 50.77093 -103.57686 38144 ft 475 kts 286°
2026-05-06 00:28 50.78571 -103.67869 38144 ft 475 kts 286°
2026-05-06 00:28 50.80030 -103.77986 38146 ft 475 kts 286°
2026-05-06 00:29 50.81488 -103.88172 38146 ft 475 kts 285°
2026-05-06 00:29 50.82941 -103.98382 38152 ft 475 kts 285°
2026-05-06 00:30 50.84372 -104.08509 38151 ft 475 kts 285°
2026-05-06 00:30 50.85816 -104.18794 38158 ft 475 kts 285°
2026-05-06 00:31 50.87240 -104.29019 38154 ft 474 kts 285°
2026-05-06 00:31 50.88643 -104.39152 38152 ft 474 kts 285°
2026-05-06 00:32 50.90047 -104.49367 38155 ft 474 kts 285°
2026-05-06 00:32 50.91441 -104.59573 38162 ft 474 kts 285°
2026-05-06 00:33 50.92826 -104.69792 38167 ft 474 kts 285°
2026-05-06 00:33 50.94203 -104.80026 38157 ft 473 kts 285°
2026-05-06 00:34 50.95569 -104.90240 38180 ft 473 kts 285°
2026-05-06 00:34 50.96926 -105.00463 38164 ft 473 kts 285°
2026-05-06 00:35 50.98273 -105.10688 38163 ft 473 kts 285°
2026-05-06 00:35 50.99604 -105.20859 38163 ft 474 kts 285°
2026-05-06 00:36 51.00933 -105.31101 38157 ft 473 kts 285°
2026-05-06 00:36 51.02254 -105.41344 38168 ft 473 kts 285°
2026-05-06 00:37 51.03567 -105.51601 38168 ft 473 kts 285°
2026-05-06 00:37 51.04868 -105.61849 38170 ft 473 kts 285°
2026-05-06 00:38 51.06162 -105.72106 38177 ft 473 kts 285°
2026-05-06 00:38 51.07446 -105.82367 38150 ft 473 kts 286°
2026-05-06 00:39 51.08719 -105.92625 38179 ft 473 kts 285°
2026-05-06 00:39 51.09986 -106.02903 38180 ft 473 kts 285°
2026-05-06 00:40 51.11244 -106.13190 38179 ft 473 kts 285°
2026-05-06 00:40 51.12493 -106.23480 38183 ft 473 kts 285°
2026-05-06 00:41 51.13723 -106.33695 38153 ft 473 kts 285°
2026-05-06 00:41 51.14950 -106.43967 38182 ft 472 kts 286°
2026-05-06 00:42 51.16167 -106.54237 38191 ft 471 kts 286°
2026-05-06 00:42 51.17377 -106.64521 38182 ft 471 kts 285°
2026-05-06 00:43 51.18574 -106.74782 38193 ft 471 kts 285°
2026-05-06 00:43 51.19764 -106.85059 38198 ft 471 kts 285°
2026-05-06 00:44 51.20940 -106.95313 38186 ft 470 kts 286°
2026-05-06 00:44 51.22109 -107.05572 38200 ft 469 kts 286°
2026-05-06 00:45 51.23260 -107.15763 38196 ft 470 kts 286°
2026-05-06 00:45 51.24408 -107.26020 38184 ft 470 kts 286°
2026-05-06 00:46 51.25550 -107.36296 38199 ft 469 kts 286°
2026-05-06 00:46 51.26678 -107.46534 38195 ft 469 kts 286°
2026-05-06 00:47 51.27795 -107.56760 38195 ft 468 kts 286°
2026-05-06 00:47 51.28901 -107.66968 38200 ft 471 kts 286°
2026-05-06 00:48 51.30014 -107.77318 38192 ft 471 kts 286°
2026-05-06 00:48 51.31105 -107.87606 38180 ft 467 kts 286°
2026-05-06 00:49 51.32180 -107.97811 38161 ft 464 kts 287°
2026-05-06 00:49 51.33241 -108.07957 38189 ft 462 kts 287°
2026-05-06 00:50 51.34288 -108.18033 38186 ft 461 kts 287°
2026-05-06 00:50 51.35329 -108.28158 38199 ft 461 kts 287°
2026-05-06 00:51 51.36365 -108.38303 38204 ft 462 kts 287°
2026-05-06 00:51 51.37393 -108.48484 38189 ft 464 kts 286°
2026-05-06 00:52 51.38414 -108.58693 38207 ft 464 kts 287°
2026-05-06 00:52 51.39427 -108.68912 38217 ft 465 kts 287°
2026-05-06 00:53 51.40433 -108.79148 38196 ft 466 kts 287°
2026-05-06 00:53 51.41425 -108.89351 38175 ft 466 kts 287°
2026-05-06 00:54 51.42420 -108.99673 38159 ft 466 kts 287°
2026-05-06 00:54 51.43394 -109.09877 38149 ft 465 kts 287°
2026-05-06 00:55 51.44363 -109.20124 38143 ft 464 kts 287°
2026-05-06 00:55 51.45321 -109.30353 38153 ft 464 kts 287°
2026-05-06 00:56 51.46272 -109.40597 38161 ft 463 kts 287°
2026-05-06 00:56 51.47211 -109.50823 38182 ft 463 kts 287°
2026-05-06 00:57 51.48135 -109.60981 38187 ft 462 kts 287°
2026-05-06 00:57 51.49053 -109.71174 38224 ft 462 kts 287°
2026-05-06 00:58 51.49965 -109.81405 38227 ft 461 kts 287°
2026-05-06 00:58 51.50866 -109.91602 38228 ft 461 kts 287°
2026-05-06 00:59 51.51745 -110.01734 38226 ft 462 kts 285°
2026-05-06 00:59 51.52454 -110.12016 38168 ft 463 kts 285°
2026-05-06 01:00 51.53081 -110.22297 38220 ft 462 kts 285°
2026-05-06 01:00 51.53713 -110.32555 38230 ft 461 kts 285°
2026-05-06 01:01 51.54357 -110.42816 38234 ft 461 kts 285°
2026-05-06 01:01 51.54992 -110.53007 38234 ft 461 kts 285°
2026-05-06 01:02 51.55623 -110.63268 38227 ft 461 kts 285°
2026-05-06 01:02 51.56243 -110.73519 38228 ft 460 kts 285°
2026-05-06 01:03 51.56851 -110.83748 38233 ft 459 kts 285°
2026-05-06 01:03 51.57449 -110.93951 38231 ft 458 kts 285°
2026-05-06 01:04 51.58026 -111.04041 37895 ft 449 kts 285°
2026-05-06 01:04 51.58311 -111.09039 37452 ft 451 kts 285°
2026-05-06 01:04 51.58604 -111.14086 36975 ft 456 kts 286°
2026-05-06 01:04 51.58890 -111.19114 36473 ft 454 kts 286°
2026-05-06 01:05 51.59166 -111.24125 35935 ft 449 kts 287°
2026-05-06 01:05 51.59439 -111.29118 35499 ft 448 kts 287°
2026-05-06 01:05 51.59716 -111.34122 35037 ft 450 kts 288°
2026-05-06 01:05 51.59992 -111.39147 34583 ft 450 kts 288°
2026-05-06 01:06 51.60262 -111.44153 34080 ft 447 kts 288°
2026-05-06 01:06 51.60526 -111.49118 33565 ft 443 kts 288°
2026-05-06 01:06 51.60786 -111.54045 33062 ft 440 kts 288°
2026-05-06 01:06 51.61039 -111.58863 32568 ft 436 kts 288°
2026-05-06 01:07 51.61292 -111.63705 32079 ft 433 kts 288°
2026-05-06 01:07 51.61542 -111.68516 31602 ft 430 kts 288°
2026-05-06 01:07 51.61788 -111.73286 31132 ft 426 kts 288°
2026-05-06 01:07 51.62032 -111.78026 30605 ft 423 kts 287°
2026-05-06 01:08 51.62271 -111.82724 30118 ft 421 kts 287°
2026-05-06 01:08 51.62508 -111.87409 29575 ft 418 kts 287°
2026-05-06 01:08 51.62740 -111.92056 29091 ft 415 kts 287°
2026-05-06 01:08 51.62968 -111.96667 28624 ft 411 kts 287°
2026-05-06 01:09 51.63193 -112.01241 28158 ft 408 kts 287°
2026-05-06 01:09 51.63415 -112.05782 27721 ft 405 kts 287°
2026-05-06 01:09 51.63633 -112.10278 27270 ft 402 kts 287°
2026-05-06 01:09 51.63850 -112.14753 26831 ft 400 kts 287°
2026-05-06 01:10 51.64063 -112.19210 26388 ft 397 kts 286°
2026-05-06 01:10 51.64273 -112.23629 25961 ft 395 kts 286°
2026-05-06 01:10 51.64480 -112.28029 25516 ft 393 kts 286°
2026-05-06 01:10 51.64684 -112.32392 25137 ft 390 kts 285°
2026-05-06 01:11 51.64818 -112.35280 24877 ft 388 kts 285°
2026-05-06 01:11 51.65081 -112.41002 24377 ft 385 kts 285°
2026-05-06 01:11 51.65203 -112.45305 23998 ft 388 kts 278°
2026-05-06 01:11 51.64634 -112.49644 23600 ft 405 kts 260°
2026-05-06 01:12 51.63607 -112.53892 23235 ft 408 kts 259°
2026-05-06 01:12 51.62943 -112.56733 22977 ft 409 kts 260°
2026-05-06 01:12 51.61982 -112.61030 22576 ft 408 kts 260°
2026-05-06 01:12 51.61042 -112.65332 22188 ft 406 kts 261°
2026-05-06 01:13 51.60113 -112.69604 21785 ft 403 kts 260°
2026-05-06 01:13 51.59186 -112.73856 21400 ft 401 kts 260°
2026-05-06 01:13 51.58265 -112.78079 20975 ft 399 kts 260°
2026-05-06 01:13 51.57344 -112.82280 20590 ft 398 kts 260°
2026-05-06 01:14 51.55505 -112.90648 19860 ft 394 kts 260°
2026-05-06 01:14 51.54593 -112.94801 19482 ft 393 kts 260°
2026-05-06 01:14 51.53696 -112.98879 19136 ft 391 kts 260°
2026-05-06 01:15 51.52790 -113.02991 18788 ft 390 kts 260°
2026-05-06 01:15 51.51886 -113.07085 18427 ft 389 kts 260°
2026-05-06 01:15 51.50979 -113.11169 18021 ft 387 kts 259°
2026-05-06 01:15 51.50075 -113.15221 17628 ft 384 kts 259°
2026-05-06 01:16 51.49177 -113.19239 17199 ft 380 kts 259°
2026-05-06 01:16 51.48288 -113.23201 16761 ft 375 kts 259°
2026-05-06 01:16 51.47295 -113.27051 16321 ft 376 kts 248°
2026-05-06 01:16 51.45712 -113.30436 15937 ft 381 kts 236°
2026-05-06 01:17 51.43982 -113.33614 15546 ft 377 kts 235°
2026-05-06 01:17 51.42274 -113.36767 15166 ft 373 kts 235°
2026-05-06 01:17 51.40595 -113.39910 14774 ft 368 kts 236°
2026-05-06 01:17 51.38954 -113.43020 14399 ft 364 kts 236°
2026-05-06 01:18 51.37340 -113.46102 14030 ft 359 kts 236°
2026-05-06 01:18 51.35751 -113.49146 13625 ft 354 kts 236°
2026-05-06 01:18 51.34189 -113.52143 13223 ft 349 kts 235°
2026-05-06 01:18 51.32646 -113.55103 12805 ft 340 kts 234°
2026-05-06 01:19 51.31165 -113.57932 12363 ft 325 kts 236°
2026-05-06 01:19 51.29739 -113.60653 11938 ft 312 kts 236°
2026-05-06 01:19 51.28370 -113.63264 11538 ft 301 kts 236°
2026-05-06 01:19 51.27041 -113.65801 11151 ft 297 kts 236°
2026-05-06 01:20 51.25711 -113.68346 10787 ft 299 kts 236°
2026-05-06 01:20 51.24370 -113.70906 10414 ft 300 kts 235°
2026-05-06 01:20 51.23033 -113.73453 10047 ft 298 kts 235°
2026-05-06 01:20 51.21710 -113.75971 9673 ft 294 kts 234°
2026-05-06 01:21 51.20411 -113.78437 9378 ft 288 kts 234°
2026-05-06 01:21 51.19135 -113.80856 9090 ft 282 kts 234°
2026-05-06 01:21 51.17871 -113.83180 8878 ft 274 kts 226°
2026-05-06 01:21 51.16210 -113.84687 8698 ft 281 kts 195°
2026-05-06 01:22 51.14324 -113.84900 8564 ft 269 kts 179°
2026-05-06 01:22 51.12493 -113.84862 8411 ft 258 kts 181°
2026-05-06 01:22 51.10714 -113.84858 8244 ft 249 kts 181°
2026-05-06 01:22 51.09016 -113.84856 8122 ft 246 kts 180°
2026-05-06 01:23 51.07310 -113.84855 7972 ft 245 kts 180°
2026-05-06 01:23 51.05604 -113.84854 7818 ft 245 kts 180°
2026-05-06 01:23 51.03916 -113.84860 7744 ft 240 kts 180°
2026-05-06 01:23 51.02238 -113.84867 7568 ft 243 kts 180°
2026-05-06 01:24 51.00543 -113.84875 7424 ft 243 kts 180°
2026-05-06 01:24 50.98853 -113.84883 7282 ft 243 kts 180°
2026-05-06 01:24 50.97162 -113.84890 7147 ft 243 kts 180°
2026-05-06 01:24 50.95468 -113.84899 7002 ft 243 kts 179°
2026-05-06 01:25 50.93787 -113.84931 6840 ft 240 kts 184°
2026-05-06 01:25 50.92229 -113.85772 6679 ft 237 kts 216°
2026-05-06 01:25 50.91205 -113.87780 6624 ft 239 kts 249°
2026-05-06 01:25 50.90868 -113.90352 6559 ft 239 kts 266°
2026-05-06 01:26 50.90746 -113.92941 6550 ft 237 kts 268°
2026-05-06 01:26 50.90651 -113.95528 6541 ft 233 kts 270°
2026-05-06 01:26 50.90968 -113.98000 6537 ft 230 kts 300°
2026-05-06 01:26 50.92048 -113.99828 6546 ft 229 kts 330°
2026-05-06 01:27 50.93436 -114.01093 6530 ft 232 kts 334°
2026-05-06 01:27 50.94918 -114.01967 6516 ft 225 kts 353°
2026-05-06 01:27 50.96440 -114.02148 6247 ft 217 kts
2026-05-06 01:27 50.97927 -114.02148 5967 ft 210 kts
2026-05-06 01:28 50.99334 -114.02141 5669 ft 193 kts
2026-05-06 01:28 51.00600 -114.02137 5426 ft 169 kts
2026-05-06 01:28 51.01719 -114.02137 5208 ft 155 kts
2026-05-06 01:28 51.02767 -114.02135 4989 ft 149 kts
2026-05-06 01:29 51.03805 -114.02133 4823 ft 150 kts
2026-05-06 01:29 51.04835 -114.02136 4609 ft 149 kts
2026-05-06 01:29 51.05876 -114.02134 4369 ft 150 kts
2026-05-06 01:29 51.06920 -114.02135 4148 ft 153 kts
2026-05-06 01:30 51.07986 -114.02140 3920 ft 153 kts
2026-05-06 01:30 51.09052 -114.02130 3723 ft 154 kts
2026-05-06 01:30 51.10123 -114.02144 3570 ft 154 kts
2026-05-06 01:30 51.11103 -114.02138 3561 ft 123 kts
2026-05-06 01:31 51.11801 -114.02138 3557 ft 78 kts 360°
2026-05-06 01:31 51.12291 -114.02136 3558 ft 71 kts
2026-05-06 01:31 51.12579 -114.02163 3557 ft 20 kts 323°
2026-05-06 01:31 51.12602 -114.02328 3561 ft 4 kts 269°
2026-05-06 01:32 51.12602 -114.02330 3561 ft 2 kts 269°
2026-05-06 01:32 51.12590 -114.02394 3561 ft 7 kts 232°
2026-05-06 01:32 51.12513 -114.02419 3561 ft 15 kts 180°
2026-05-06 01:32 51.12411 -114.02418 3561 ft 15 kts 180°
2026-05-06 01:33 51.12310 -114.02418 3558 ft 15 kts 180°
2026-05-06 01:33 51.12208 -114.02418 3560 ft 15 kts 180°
2026-05-06 01:33 51.12105 -114.02418 3557 ft 15 kts 180°
2026-05-06 01:33 51.12001 -114.02419 3561 ft 15 kts 180°
2026-05-06 01:34 51.11899 -114.02427 3556 ft 11 kts 200°
2026-05-06 01:34 51.11896 -114.02523 3554 ft 10 kts 310°
2026-05-06 01:34 51.11945 -114.02608 3557 ft 10 kts 313°
2026-05-06 01:34 51.11988 -114.02685 3561 ft 3 kts 298°
2026-05-06 01:35 51.11990 -114.02717 3555 ft 3 kts 263°
2026-05-06 01:35 51.11978 -114.02747 3556 ft 3 kts 230°
2026-05-06 01:35 51.11961 -114.02773 3555 ft 4 kts 223°
2026-05-06 01:35 51.11952 -114.02788 3556 ft 0 kts 223°